Location: Barrio de Canyet
(41.4665°N, 2.2381°E)
Time: 08:34:07
(UTC+00:00)

ERBS - Pass Details

Date: 09 April 2020
Orbit: 409 x 427 km, 57.0° (Epoch: 03 June)

Event Time Altitude Azimuth Distance (km) Brightness Sun altitude
Rises 20:08:17 0° 323° (NW) 2,397 7.3 -18.8°
Reaches altitude 10° 20:10:38 10° 337° (NNW) 1,528 5.8 -19.2°
Maximum altitude 20:13:32 25° 35° (NE) 908 3.9 -19.7°
Enters shadow 20:13:36 25° 36° (NE) 908 3.8 -19.7°
